New River MCAS, NC

3:21 PM EDT on May 23, 2017 (GMT -0400)
New River Marine Corps Air Station

Weather History for KNCA - October, 2012

Change the Weather History Date:

Wednesday, October 3, 2012

  Actual Average Record
Temperature  
Mean Temperature 78 °F -  
Max Temperature 84 °F 76 °F 89 °F (2002)
Min Temperature 73 °F 57 °F 43 °F (2011)
Cooling Degree Days 12    
Growing Degree Days 28 (Base 50)    
Moisture  
Dew Point 73 °F    
Average Humidity 86    
Maximum Humidity 94    
Minimum Humidity 74    
Precipitation  
Precipitation 0.14 in - - ()
Sea Level Pressure  
Sea Level Pressure 30.10 in    
Wind  
Wind Speed 7 mph (SSW)    
Max Wind Speed 17 mph    
Max Gust Speed 24 mph    
Visibility 8 miles    
Events Rain    
Averages and records for this station are not official NWS values.
T = Trace of Precipitation, MM = Missing Value Source: NWS Daily Summary

Daily Weather History Graph

Daily Weather History Graph

Search for Another Location

Airport or City:

Trip Planner

Search our weather history database for the weather conditions in past years. The results will help you decide how hot, cold, wet, or windy it might be!

Date:

Astronomy

Oct. 03, 2012 Rise Set
Actual Time 7:06 AM EDT 6:50 PM EDT
Civil Twilight 6:41 AM EDT 7:15 PM EDT
Nautical Twilight 6:11 AM EDT 7:44 PM EDT
Astronomical Twilight 5:42 AM EDT 8:13 PM EDT
Moon 8:51 PM EDT (10/3) 10:17 AM EDT (10/3)
Length of Visible Light 12h 34m
Length of Day
11h 44m
Waning Gibbous, 89% of the Moon is Illuminated
Oct 3
Waning Gibbous
Oct 8
Last Quarter
Oct 15
New
Oct 21
First Quarter
Oct 29
Full

Hourly Weather History & Observations

Time (EDT) Temp. Heat Index Dew Point Humidity Pressure Visibility Wind Dir Wind Speed Gust Speed Precip Events Conditions
12:56 AM 77.0 °F - 73.0 °F 88% 30.04 in 10.0 mi South 9.2 mph - N/A   Partly Cloudy
2:09 AM 78.8 °F - 73.4 °F 83% 30.03 in 10.0 mi South 5.8 mph - N/A   Mostly Cloudy
2:17 AM 78.8 °F - 73.4 °F 83% 30.03 in 10.0 mi South 8.1 mph - N/A   Mostly Cloudy
2:56 AM 79.0 °F - 75.0 °F 88% 30.04 in 10.0 mi SSW 11.5 mph 16.1 mph N/A   Overcast
3:08 AM 78.8 °F - 73.4 °F 83% 30.03 in 10.0 mi SSW 8.1 mph - N/A   Overcast
3:24 AM 78.8 °F - 73.4 °F 83% 30.03 in 10.0 mi SSW 6.9 mph 19.6 mph N/A   Mostly Cloudy
3:31 AM 78.8 °F - 73.4 °F 83% 30.03 in 10.0 mi SSW 9.2 mph - N/A   Scattered Clouds
4:17 AM 78.8 °F - 73.4 °F 83% 30.04 in 10.0 mi SW 8.1 mph 17.3 mph N/A   Scattered Clouds
6:56 AM 75.9 °F - 73.0 °F 91% 30.08 in 10.0 mi Calm Calm - N/A   Partly Cloudy
7:56 AM 75.9 °F - 72.0 °F 87% 30.11 in 10.0 mi SSW 3.5 mph - N/A   Mostly Cloudy
8:56 AM 77.0 °F - 72.0 °F 84% 30.12 in 10.0 mi South 5.8 mph - N/A   Mostly Cloudy
10:56 AM 78.1 °F - 72.0 °F 81% 30.14 in 10.0 mi SSW 5.8 mph - 0.00 in Rain Light Rain
12:48 PM 82.4 °F 88.2 °F 73.4 °F 74% 30.13 in 10.0 mi WSW 5.8 mph - N/A   Mostly Cloudy
1:03 PM 82.4 °F 88.2 °F 73.4 °F 74% 30.12 in 10.0 mi SW 3.5 mph - N/A   Scattered Clouds
1:56 PM 81.0 °F 85.8 °F 73.0 °F 77% 30.11 in 10.0 mi SSE 10.4 mph - N/A   Mostly Cloudy
2:46 PM 77.0 °F - 73.4 °F 89% 30.11 in 2.5 mi West 17.3 mph 23.0 mph 0.01 in Rain Light Rain
2:56 PM 75.0 °F - 72.0 °F 90% 30.12 in 2.5 mi WNW 11.5 mph 24.2 mph 0.07 in Rain Light Rain
2:58 PM 75.2 °F - 71.6 °F 89% 30.11 in 3.0 mi WNW 10.4 mph - 0.00 in Rain Light Rain
3:06 PM 75.2 °F - 71.6 °F 89% 30.11 in 2.0 mi WNW 6.9 mph - 0.03 in Rain Light Rain
3:13 PM 75.2 °F - 71.6 °F 89% 30.10 in 1.5 mi North 5.8 mph - 0.07 in Rain Light Rain
3:21 PM 75.2 °F - 71.6 °F 89% 30.10 in 6.0 mi North 3.5 mph - 0.07 in   Haze
3:56 PM 78.1 °F - 72.0 °F 81% 30.11 in 6.0 mi Calm Calm - 0.07 in   Haze
4:56 PM 78.1 °F - 73.0 °F 84% 30.12 in 10.0 mi ESE 3.5 mph - N/A   Mostly Cloudy
5:56 PM 75.0 °F - 71.1 °F 87% 30.13 in 10.0 mi South 6.9 mph - 0.00 in   Overcast
6:56 PM 75.0 °F - 72.0 °F 90% 30.14 in 10.0 mi South 4.6 mph - N/A   Clear
7:56 PM 75.0 °F - 73.0 °F 94% 30.15 in 10.0 mi South 3.5 mph - N/A   Clear
8:56 PM 75.0 °F - 73.0 °F 94% 30.17 in 10.0 mi South 4.6 mph - N/A   Clear
9:56 PM 73.9 °F - 72.0 °F 93% 30.18 in 10.0 mi South 3.5 mph - N/A   Clear
10:56 PM 73.9 °F - 72.0 °F 93% 30.19 in 9.0 mi South 4.6 mph - N/A   Clear
11:56 PM 73.9 °F - 72.0 °F 93% 30.20 in 10.0 mi SW 3.5 mph - N/A   Mostly Cloudy